When you browse on this site, cookies collect data to enhance your experience and personalize the content and advertising you see.
Visit our Privacy Policy to learn more. By continuing to use the site, you agree to this use of cookies and data.
  • In United Kingdom
  • List of Countries
  • For 7 days
  • Water Temperature
  • Satellite Maps
  • Weather Map
  • Weather Widgets
  • user-avatar
    Login

    Hourly Weather Moncalieri

    Today, 21 May, Tuesday

    Time Temperature Precipitation Wind Pressure Humidity
    00:00 +13°C° 0 mm 1 mps 736 mmHg 78%
    01:00 +13°C° 0 mm 1 mps 736 mmHg 77%
    02:00 +13°C° 0 mm 1 mps 736 mmHg 77%
    03:00 +12°C° 0 mm 1 mps 736 mmHg 77%
    04:00 +12°C° 0 mm 1 mps 736 mmHg 77%
    05:00 +13°C° 0 mm 1 mps 736 mmHg 76%
    06:00 +14°C° 0 mm 1 mps 736 mmHg 74%
    07:00 +15°C° 0 mm 1 mps 736 mmHg 73%
    08:00 +18°C° 0 mm 1 mps 737 mmHg 66%
    09:00 +20°C° 0 mm 1 mps 737 mmHg 60%
    10:00 +21°C° 0 mm 2 mps 737 mmHg 54%
    11:00 +23°C° 0 mm 2 mps 737 mmHg 52%
    12:00 +24°C° 0 mm 2 mps 737 mmHg 49%
    13:00 +25°C° 0 mm 3 mps 737 mmHg 47%
    14:00 +25°C° 0 mm 3 mps 737 mmHg 49%
    15:00 +25°C° 0 mm 3 mps 737 mmHg 51%
    16:00 +25°C° 0 mm 3 mps 737 mmHg 54%
    17:00 +22°C° 0.3 mm 3 mps 738 mmHg 59%
    18:00 +21°C° 0.3 mm 3 mps 738 mmHg 65%
    19:00 +20°C° 0.3 mm 2 mps 738 mmHg 71%
    20:00 +18°C° 0.4 mm 2 mps 739 mmHg 72%
    21:00 +17°C° 0.4 mm 2 mps 739 mmHg 74%
    22:00 +16°C° 0.4 mm 1 mps 740 mmHg 75%
    23:00 +15°C° 0.2 mm 1 mps 740 mmHg 72%

    Tomorrow, 22 May, Wednesday

    Time Temperature Precipitation Wind Pressure Humidity
    00:00 +15°C° 0.2 mm 1 mps 740 mmHg 70%
    01:00 +14°C° 0.2 mm 1 mps 740 mmHg 67%
    02:00 +14°C° 0 mm 1 mps 740 mmHg 66%
    03:00 +14°C° 0 mm 1 mps 740 mmHg 66%
    04:00 +13°C° 0 mm 1 mps 740 mmHg 65%
    05:00 +14°C° 0 mm 1 mps 741 mmHg 65%
    06:00 +14°C° 0 mm 0 mps 741 mmHg 64%
    07:00 +15°C° 0 mm 0 mps 741 mmHg 63%
    08:00 +18°C° 0 mm 1 mps 741 mmHg 60%
    09:00 +20°C° 0 mm 1 mps 741 mmHg 56%
    10:00 +22°C° 0 mm 1 mps 741 mmHg 52%
    11:00 +23°C° 0 mm 2 mps 741 mmHg 50%
    12:00 +24°C° 0 mm 2 mps 741 mmHg 48%
    13:00 +25°C° 0 mm 2 mps 741 mmHg 46%
    14:00 +25°C° 0 mm 2 mps 741 mmHg 47%
    15:00 +25°C° 0 mm 2 mps 741 mmHg 49%
    16:00 +25°C° 0 mm 3 mps 741 mmHg 50%
    17:00 +24°C° 0 mm 2 mps 741 mmHg 56%
    18:00 +23°C° 0 mm 2 mps 741 mmHg 61%
    19:00 +21°C° 0 mm 2 mps 741 mmHg 67%
    20:00 +21°C° 0.1 mm 1 mps 741 mmHg 69%
    21:00 +19°C° 0.1 mm 1 mps 742 mmHg 71%
    22:00 +18°C° 0.1 mm 1 mps 742 mmHg 73%
    23:00 +16°C° 0.2 mm 1 mps 743 mmHg 72%

    Day after tomorrow, 23 May, Thursday

    Time Temperature Precipitation Wind Pressure Humidity
    00:00 +15°C° 0.2 mm 1 mps 743 mmHg 70%
    01:00 +15°C° 0.2 mm 1 mps 743 mmHg 69%
    02:00 +15°C° 0 mm 1 mps 743 mmHg 70%
    03:00 +14°C° 0 mm 1 mps 743 mmHg 71%
    04:00 +14°C° 0 mm 1 mps 743 mmHg 72%
    05:00 +15°C° 0 mm 1 mps 743 mmHg 72%
    06:00 +15°C° 0 mm 1 mps 743 mmHg 71%
    07:00 +15°C° 0 mm 0 mps 743 mmHg 71%
    08:00 +19°C° 0 mm 1 mps 743 mmHg 69%
    09:00 +20°C° 0 mm 1 mps 743 mmHg 67%
    10:00 +22°C° 0 mm 1 mps 743 mmHg 65%
    11:00 +23°C° 0 mm 2 mps 742 mmHg 61%
    12:00 +24°C° 0 mm 2 mps 742 mmHg 58%
    13:00 +25°C° 0 mm 2 mps 742 mmHg 55%
    14:00 +25°C° 0 mm 2 mps 742 mmHg 54%
    15:00 +26°C° 0 mm 2 mps 742 mmHg 53%
    16:00 +26°C° 0 mm 1 mps 741 mmHg 52%
    17:00 +25°C° 0.1 mm 1 mps 741 mmHg 57%
    18:00 +24°C° 0.1 mm 1 mps 741 mmHg 62%
    19:00 +23°C° 0.1 mm 1 mps 741 mmHg 68%
    20:00 +22°C° 0.3 mm 1 mps 741 mmHg 71%
    21:00 +20°C° 0.3 mm 1 mps 742 mmHg 75%
    22:00 +18°C° 0.3 mm 1 mps 742 mmHg 78%
    23:00 +18°C° 0.4 mm 1 mps 742 mmHg 77%

    24 May, Friday

    Time Temperature Precipitation Wind Pressure Humidity
    00:00 +16°C° 0.4 mm 1 mps 742 mmHg 75%
    01:00 +16°C° 0.4 mm 1 mps 742 mmHg 74%
    02:00 +15°C° 0 mm 1 mps 742 mmHg 73%
    03:00 +15°C° 0 mm 1 mps 742 mmHg 72%
    04:00 +15°C° 0 mm 1 mps 741 mmHg 71%
    05:00 +16°C° 0 mm 1 mps 741 mmHg 68%
    06:00 +16°C° 0 mm 0 mps 741 mmHg 66%
    07:00 +17°C° 0 mm 0 mps 741 mmHg 64%
    08:00 +20°C° 0 mm 1 mps 741 mmHg 63%
    09:00 +22°C° 0 mm 1 mps 741 mmHg 61%
    10:00 +23°C° 0 mm 1 mps 741 mmHg 60%
    11:00 +24°C° 0.3 mm 2 mps 741 mmHg 58%
    12:00 +25°C° 0.3 mm 2 mps 740 mmHg 56%
    13:00 +26°C° 0.3 mm 2 mps 740 mmHg 54%
    14:00 +26°C° 0.2 mm 2 mps 739 mmHg 54%
    15:00 +26°C° 0.2 mm 2 mps 739 mmHg 54%
    16:00 +26°C° 0.2 mm 2 mps 738 mmHg 55%
    17:00 +25°C° 0.8 mm 2 mps 738 mmHg 61%
    18:00 +24°C° 0.8 mm 2 mps 738 mmHg 68%
    19:00 +21°C° 0.8 mm 2 mps 738 mmHg 75%
    20:00 +20°C° 1 mm 2 mps 738 mmHg 78%
    21:00 +19°C° 1 mm 1 mps 738 mmHg 81%
    22:00 +18°C° 1 mm 1 mps 738 mmHg 84%
    23:00 +16°C° 0.8 mm 1 mps 738 mmHg 85%

    25 May, Saturday

    Time Temperature Precipitation Wind Pressure Humidity
    00:00 +16°C° 0.8 mm 1 mps 737 mmHg 86%
    01:00 +15°C° 0.8 mm 1 mps 737 mmHg 87%
    02:00 +15°C° 0.1 mm 1 mps 737 mmHg 88%
    03:00 +14°C° 0.1 mm 1 mps 737 mmHg 90%
    04:00 +14°C° 0.1 mm 1 mps 737 mmHg 92%
    05:00 +14°C° 0.8 mm 1 mps 737 mmHg 90%
    06:00 +15°C° 0.8 mm 1 mps 737 mmHg 89%
    07:00 +15°C° 0.8 mm 1 mps 737 mmHg 88%
    08:00 +15°C° 2.4 mm 1 mps 738 mmHg 89%
    09:00 +15°C° 2.4 mm 1 mps 738 mmHg 90%
    10:00 +15°C° 2.4 mm 1 mps 738 mmHg 91%
    11:00 +16°C° 0.5 mm 1 mps 738 mmHg 85%
    12:00 +19°C° 0.5 mm 1 mps 738 mmHg 79%
    13:00 +20°C° 0.5 mm 1 mps 738 mmHg 73%
    14:00 +21°C° 0 mm 1 mps 738 mmHg 68%
    15:00 +21°C° 0 mm 2 mps 738 mmHg 64%
    16:00 +23°C° 0 mm 2 mps 738 mmHg 59%
    17:00 +21°C° 0 mm 2 mps 739 mmHg 63%
    18:00 +22°C° 0 mm 1 mps 739 mmHg 67%
    19:00 +21°C° 0 mm 1 mps 739 mmHg 72%
    20:00 +20°C° 0 mm 1 mps 739 mmHg 74%
    21:00 +18°C° 0 mm 1 mps 740 mmHg 76%
    22:00 +16°C° 0 mm 1 mps 740 mmHg 78%
    23:00 +16°C° 0 mm 1 mps 740 mmHg 76%

    26 May, Sunday

    Time Temperature Precipitation Wind Pressure Humidity
    00:00 +16°C° 0 mm 1 mps 740 mmHg 75%
    01:00 +15°C° 0 mm 1 mps 740 mmHg 73%
    02:00 +15°C° 0 mm 1 mps 740 mmHg 71%
    03:00 +15°C° 0 mm 1 mps 740 mmHg 69%
    04:00 +14°C° 0 mm 1 mps 740 mmHg 66%
    05:00 +15°C° 0 mm 1 mps 740 mmHg 64%
    06:00 +16°C° 0 mm 1 mps 741 mmHg 62%
    07:00 +18°C° 0 mm 1 mps 741 mmHg 60%
    08:00 +20°C° 0 mm 1 mps 741 mmHg 56%
    09:00 +22°C° 0 mm 1 mps 741 mmHg 51%
    10:00 +24°C° 0 mm 1 mps 741 mmHg 46%
    11:00 +25°C° 0 mm 1 mps 741 mmHg 46%
    12:00 +26°C° 0 mm 1 mps 741 mmHg 45%
    13:00 +27°C° 0 mm 2 mps 741 mmHg 44%
    14:00 +27°C° 0 mm 2 mps 740 mmHg 44%
    15:00 +27°C° 0 mm 2 mps 740 mmHg 45%
    16:00 +27°C° 0 mm 2 mps 740 mmHg 45%
    17:00 +26°C° 0 mm 2 mps 740 mmHg 50%
    18:00 +25°C° 0 mm 1 mps 740 mmHg 54%
    19:00 +24°C° 0 mm 1 mps 740 mmHg 59%
    20:00 +23°C° 0 mm 1 mps 741 mmHg 60%
    21:00 +21°C° 0 mm 1 mps 741 mmHg 62%
    22:00 +20°C° 0 mm 1 mps 741 mmHg 63%
    23:00 +19°C° 0 mm 1 mps 741 mmHg 63%
    Show more